Regional Weather Roundup
Issued by NWS

Home | Current Version | Previous Version | Text Only | Print | Product List | Glossary Off
Versions: 1 2 3 4 5 6 7 8 9 10 11 12 13 14 15 16 17 18 19 20 21 22 23 24 25 26 27 28 29 30 31 32 33 34 35 36 37 38 39 40 41 42 43 44 45 46 47 48 49 50

000
ASUS43 KDTX 281010
RWRMI
MICHIGAN HOURLY REGIONAL WEATHER ROUNDUP
NATIONAL WEATHER SERVICE DETROIT/PONTIAC MI
600 AM EDT SAT MAY 28 2016

NOTE: "FAIR" INDICATES FEW OR NO CLOUDS BELOW 12,000 FEET WITH NO
SIGNIFICANT WEATHER AND/OR OBSTRUCTION TO VISIBILITY.

MIZ047>049-052>055-059>063-066>070-074>076-081>083-281100-
SOUTHEAST LOWER MICHIGAN

CITY           SKY/WX    TMP DP  RH WIND       PRES   REMARKS
ADRIAN         CLEAR     66  61  84 CALM      30.00S
ALMA           CLEAR     67  62  86 SW6       29.96S
ANN ARBOR      CLEAR     58  58 100 CALM      30.00S FOG
BAD AXE        CLEAR     66  61  84 S6        29.99R
CARO           CLEAR     63  61  93 CALM      29.98R
DETROIT CITY   CLEAR     68  61  78 CALM      30.01R
DETROIT        MOCLDY    66  61  84 CALM      30.01R
FLINT          CLEAR     72  61  68 S6        29.99R
GROSSE ILE     CLEAR     64  63  94 CALM      30.00R
HILLSDALE      PTCLDY    67  60  78 SE3       30.00S
HOWELL         CLEAR     69  62  79 S5        30.00R

CITY           SKY/WX    TMP DP  RH WIND       PRES   REMARKS
JACKSON        CLEAR     69  62  78 S6        29.99R
LAMBERTVILLE   CLEAR     67  62  83 S3        30.01R
LANSING        PTCLDY    67  60  78 S6        29.98R
LAPEER         FAIR      66  60  81 CALM      30.01R
MASON          CLEAR     66  60  81 SE3       29.99R
MONROE         CLEAR     64  62  94 S7        30.00R
MT. CLEMENS    CLEAR     63  63 100 SE2       30.01R FOG
PONTIAC        PTCLDY    64  61  90 CALM      30.01R
PORT HOPE        N/A     70  63  78 VRB3      29.96R
PORT HURON     CLEAR     59  59 100 CALM      30.01R
TRI CITIES     CLEAR     71  62  73 S7        29.97R
MIDLAND        FAIR      64  63  96 CALM      29.95S
TROY           CLEAR     67  63  85 CALM      30.03R
SAGINAW HB     CLEAR     68  61  77 S6        29.97R
$$
MIZ043>046-050>051-056>058-064>065-071>073-077>080-281100-
SOUTHWEST LOWER MICHIGAN

CITY           SKY/WX    TMP DP  RH WIND       PRES   REMARKS
BATTLE CREEK   CLEAR     67  60  78 S7        29.97R
BENTON HARBOR  CLOUDY    70  63  78 SE6       29.91S
BIG RAPIDS     CLOUDY    66  65  97 CALM      29.94S
COLDWATER      CLEAR     69  62  79 SE5       29.97S
FREMONT        FAIR      67  67 100 SE3       29.92S
HOLLAND        CLOUDY    69  64  84 SE6       29.92F
GRAND RAPIDS   MOCLDY    68  61  78 S7        29.94S
IONIA          FAIR      66  59  78 SE6       29.95S
KALAMAZOO      PTCLDY    70  60  70 SE5       29.96R
LUDINGTON      CLOUDY    69  64  82 S9        29.90R
MARSHALL       CLEAR     69  62  79 SE5       29.97S
MOUNT PLEASANT CLEAR     63  63 100 CALM      29.96R FOG
MUSKEGON       CLOUDY    69  64  84 SE7       29.91S
SOUTH HAVEN    CLOUDY    70  64  82 SE3       29.92S
$$
MIZ016>042-281100-
NORTHERN LOWER MICHIGAN

CITY           SKY/WX    TMP DP  RH WIND       PRES   REMARKS
ALPENA         CLOUDY    62  61  96 SE3       29.96R
BEAVER ISLAND  DRIZZLE   66  65  96 SE6       29.89R
BELLAIRE       CLOUDY    70  65  82 S6        29.91R
CADILLAC       CLOUDY    67  64  88 S8        29.94R
CHARLEVOIX     LGT RAIN  68  67  96 SE5       29.93R
FRANKFORT      CLOUDY    70  65  84 S8        29.88R
GAYLORD        CLOUDY    67  64  90 S7        29.95R
GRAYLING       CLOUDY    66  65  96 CALM      29.96R
HARBOR SPRINGS CLOUDY    67  65  94 CALM      29.91R
HOUGHTON LAKE  CLOUDY    66  64  93 SE3       29.97R
MANISTEE       CLOUDY    68  61  77 S3        29.90R
OSCODA         CLOUDY    64  60  86 CALM      29.95S
PELLSTON       CLOUDY    67  64  90 SE6       29.91S
ROGERS CITY    CLOUDY    65  62  91 SE5       29.95S
TRAVERSE CITY  CLOUDY    71  64  78 S5        29.88R
$$
MIZ007>008-015-281100-
EASTERN UPPER MICHIGAN

CITY           SKY/WX    TMP DP  RH WIND       PRES   REMARKS
KINROSS          N/A     61  59  94 E9        29.92S
MACKINAC ISLAN DRIZZLE   54  54 100 E8        29.92R
NEWBERRY       CLOUDY    64  63  97 SE7       29.87S
S. S. MARIE    CLOUDY    60  58  92 SE8       29.93R
MUNISING         N/A     65  64  97 S7        29.82R
$$
MIZ004>006-011>014-085-281100-
CENTRAL UPPER MICHIGAN

CITY           SKY/WX    TMP DP  RH WIND       PRES   REMARKS
MANISTIQUE     CLOUDY    58  58  97 SE6       29.86R FOG
ESCANABA       CLOUDY    57  55  94 S5        29.83S
MENOMINEE      CLOUDY    61  59  94 CALM      29.83R
SAWYER-GWINN   FOG       62  61  97 S8        29.83R VSB 3/4
$$
MIZ001>003-009>011-084-281100-
WESTERN UPPER MICHIGAN

CITY           SKY/WX    TMP DP  RH WIND       PRES   REMARKS
IRON MOUNTAIN  FOG       62  61  96 SE3       29.81R VSB 1/2
HOUGHTON       FOG       54  53  97 E5        29.79S VSB 1/4
COPPER HARBOR    N/A     49  48  97 N3        29.80R
IRONWOOD       PTCLDY    63  63 100 CALM      29.74S
$$

ABBREVIATIONS USED IN REMARKS
   TC - TEMPERATURE IN CELSIUS
  WCI - WIND CHILL INDEX
   HX - HEAT INDEX
  VSB - VISIBILITY





USA.gov is the U.S. government's official web portal to all federal, state and local government web resources and services.